Location: F?ge?el
(45.8833°N, 22.5833°E)
Time: 12:34:49
(UTC+00:00)

BREEZE-M DEB (TANK) - Pass Details

Date: 17 November 2025
Orbit: 274 x 13339 km, 49.5° (Epoch: 10 December)

Event Time Altitude Azimuth Distance (km) Brightness Sun altitude
Rises 17:49:49 0° 270° (W) 2,420 7.3 -30.1°
Reaches altitude 10° 17:51:10 10° 274° (W) 1,816 6.4 -30.3°
Enters shadow 17:54:16 62° 324° (NW) 989 4.1 -30.8°
